Regional Weather Roundup
Issued by NWS

Home | Current Version | Previous Version | Text Only | Print | Product List | Glossary On
Versions: 1 2 3 4 5 6 7 8 9 10 11 12 13 14 15 16 17 18 19 20 21 22 23 24 25 26 27 28 29 30 31 32 33 34 35 36 37 38 39 40 41 42 43 44 45 46 47 48 49 50
000
ASUS43 KBIS 241210
RWRND

NORTH DAKOTA REGIONAL WEATHER ROUNDUP
NATIONAL WEATHER SERVICE BISMARCK ND
700 AM CDT TUE OCT 24 2017

NOTE: "FAIR" INDICATES FEW OR NO CLOUDS BELOW 12,000 FEET WITH NO
SIGNIFICANT WEATHER AND/OR OBSTRUCTIONS TO VISIBILITY.


NDZ001>003-009>011-017-241300-
NORTHWEST NORTH DAKOTA

CITY           SKY/WX    TMP DP  RH WIND       PRES   REMARKS
WILLISTON      CLEAR     29  23  78 SW7       30.38S
6HR MIN TEMP:  29; 6HR MAX TEMP:  38;

MINOT          CLEAR     34  29  82 W13       30.30F
MINOT AFB      CLEAR     29  26  89 W8        30.29F
$$

NDZ018>021-031>035-040>046-241300-
SOUTHWEST NORTH DAKOTA

CITY           SKY/WX    TMP DP  RH WIND       PRES   REMARKS
BISMARCK       CLEAR     36  32  85 W9        30.33R
6HR MIN TEMP:  29; 6HR MAX TEMP:  43;

DICKINSON      CLEAR     28  24  85 W12       30.34F WCI  18
GARRISON         N/A     30  28  92 NW12      30.32S
6HR MIN TEMP:  29; 6HR MAX TEMP:  35;

HETTINGER ARPT CLEAR     25  20  81 NW9       30.39R WCI  15
$$

NDZ004>008-012>016-024-026-027-054-241300-
NORTHEAST NORTH DAKOTA

CITY           SKY/WX    TMP DP  RH WIND       PRES   REMARKS
GRAND FORKS    CLEAR     32  29  88 NW12      30.18S
GRND FRKS AFB  CLEAR     33  28  84 N14       30.18S
DEVILS LAKE    CLEAR     29  27  92 NW12      30.25S WCI  19
$$

NDZ022-023-025-028>030-036>039-047>053-241300-
SOUTHEAST NORTH DAKOTA

CITY           SKY/WX    TMP DP  RH WIND       PRES   REMARKS
FARGO          CLEAR     33  28  81 NW20G26   30.16R
6HR MIN TEMP:  33; 6HR MAX TEMP:  36;

JAMESTOWN      CLEAR     31  28  89 NW14      30.22S
$$





USA.gov is the U.S. government's official web portal to all federal, state and local government web resources and services.